Weather History for Peru, IL

Change the Weather History Date:

Saturday, January 19, 2013

  Actual Average Record
Temperature  
Mean Temperature 38 °F -  
Max Temperature 49 °F 28 °F 59 °F (2006)
Min Temperature 26 °F 11 °F -26 °F (1985)
Degree Days  
Heating Degree Days 27    
Moisture  
Dew Point 31 °F    
Average Humidity 64    
Maximum Humidity 71    
Minimum Humidity 50    
Precipitation  
Precipitation 0.00 in - - ()
Sea Level Pressure  
Sea Level Pressure 29.88 in    
Wind  
Wind Speed 18 mph (WSW)    
Max Wind Speed 32 mph    
Max Gust Speed 47 mph    
Visibility 10 miles    
Events      
Averages and records for this station are not official NWS values.
T = Trace of Precipitation, MM = Missing Value Source: NWS Daily Summary

Daily Weather History Graph

Daily Weather History Graph

Search for Another Location

Airport:

Trip Planner

Search our weather history database for the weather conditions in past years. The results will help you decide how hot, cold, wet, or windy it might be!

Date:

Astronomy

Jan. 19, 2013 Rise Set
Actual Time 7:18 AM CST 4:57 PM CST
Civil Twilight 6:47 AM CST 5:27 PM CST
Nautical Twilight 6:14 AM CST 6:01 PM CST
Astronomical Twilight 5:41 AM CST 6:34 PM CST
Moon 11:24 AM CST 12:51 AM CST
Length of Visible Light 10h 39m
Length of Day
9h 39m
First Quarter, 57% of the Moon is Illuminated
Jan 19
First Quarter
Jan 26
Full
Feb 3
Last Quarter
Feb 10
New
Feb 17
First Quarter

Hourly Weather History & Observations

Time (CST) Temp. Windchill Dew Point Humidity Pressure Visibility Wind Dir Wind Speed Gust Speed Precip Events Conditions
12:15 AM 42.1 °F 33.6 °F 28.6 °F 59% 29.94 in 10.0 mi SSW 18.4 mph 26.5 mph N/A   Clear
12:35 AM 42.1 °F 33.1 °F 28.4 °F 58% 29.95 in 10.0 mi SW 20.7 mph 27.6 mph N/A   Clear
12:55 AM 41.9 °F 33.4 °F 28.8 °F 60% 29.94 in 10.0 mi SW 18.4 mph 24.2 mph N/A   Clear
1:15 AM 41.0 °F 33.5 °F 28.6 °F 61% 29.95 in 10.0 mi SW 13.8 mph - N/A   Clear
1:35 AM 41.2 °F 32.4 °F 28.9 °F 62% 29.95 in 10.0 mi SSW 18.4 mph 24.2 mph N/A   Clear
1:55 AM 41.0 °F 32.8 °F 28.9 °F 62% 29.96 in 10.0 mi SW 16.1 mph 20.7 mph N/A   Clear
2:15 AM 40.5 °F 32.5 °F 29.1 °F 64% 29.96 in 10.0 mi SW 15.0 mph - N/A   Clear
2:35 AM 40.3 °F 31.9 °F 29.3 °F 65% 29.96 in 10.0 mi SW 16.1 mph 21.9 mph N/A   Clear
2:55 AM 39.6 °F 32.5 °F 29.3 °F 67% 29.96 in 10.0 mi SW 11.5 mph - N/A   Clear
3:15 AM 39.6 °F 31.3 °F 29.8 °F 68% 29.94 in 10.0 mi SW 15.0 mph - N/A   Clear
3:35 AM 39.6 °F 31.7 °F 29.8 °F 68% 29.94 in 10.0 mi SW 13.8 mph - N/A   Clear
3:55 AM 38.3 °F 29.7 °F 29.1 °F 70% 29.93 in 10.0 mi SSW 15.0 mph - N/A   Clear
4:15 AM 38.3 °F 30.5 °F 29.3 °F 70% 29.93 in 10.0 mi SSW 12.7 mph - N/A   Clear
4:35 AM 38.3 °F 30.5 °F 29.3 °F 70% 29.92 in 10.0 mi SW 12.7 mph - N/A   Clear
4:55 AM 39.4 °F 31.1 °F 30.2 °F 70% 29.92 in 10.0 mi SW 15.0 mph 20.7 mph N/A   Clear
5:15 AM 39.6 °F 31.0 °F 30.0 °F 69% 29.91 in 10.0 mi SW 16.1 mph - N/A   Clear
5:35 AM 39.6 °F 31.0 °F 30.2 °F 69% 29.91 in 10.0 mi SSW 16.1 mph - N/A   Clear
6:35 AM 39.6 °F 30.6 °F 30.2 °F 69% 29.90 in 10.0 mi SW 17.3 mph - N/A   Clear
6:55 AM 39.4 °F 30.4 °F 30.4 °F 70% 29.90 in 10.0 mi SW 17.3 mph - N/A   Clear
7:15 AM 38.5 °F 29.2 °F 29.8 °F 71% 29.88 in 10.0 mi SSW 17.3 mph - N/A   Clear
7:55 AM 38.8 °F 30.0 °F 30.2 °F 71% 29.88 in 10.0 mi SW 16.1 mph 20.7 mph N/A   Clear
8:35 AM 39.7 °F 31.2 °F 30.7 °F 70% 29.88 in 10.0 mi SW 16.1 mph - N/A   Clear
9:35 AM 42.1 °F 34.9 °F 31.8 °F 67% 29.89 in 10.0 mi SW 13.8 mph - N/A   Clear
9:55 AM 42.3 °F 34.1 °F 32.0 °F 67% 29.88 in 10.0 mi SW 17.3 mph - N/A   Clear
10:15 AM 43.3 °F 35.5 °F 32.2 °F 65% 29.88 in 10.0 mi WSW 17.3 mph 21.9 mph N/A   Clear
10:35 AM 44.6 °F 37.2 °F 32.9 °F 64% 29.87 in 10.0 mi SW 17.3 mph 23.0 mph N/A   Clear
10:55 AM 45.7 °F 39.8 °F 33.3 °F 62% 29.86 in 10.0 mi SW 12.7 mph 21.9 mph N/A   Clear
11:15 AM 47.5 °F - 33.8 °F 59% 29.83 in 10.0 mi SW 18.4 mph 25.3 mph N/A   Clear
11:35 AM 47.8 °F - 34.7 °F 60% 29.82 in 10.0 mi SW 19.6 mph 31.1 mph N/A   Clear
11:55 AM 47.3 °F - 34.3 °F 61% 29.82 in 10.0 mi WSW 17.3 mph 27.6 mph N/A   Clear
12:15 PM 46.4 °F 39.2 °F 34.2 °F 62% 29.81 in 10.0 mi WSW 18.4 mph 24.2 mph N/A   Clear
12:35 PM 47.1 °F - 34.9 °F 62% 29.80 in 10.0 mi WSW 10.4 mph 25.3 mph N/A   Clear
12:55 PM 46.4 °F 40.4 °F 34.5 °F 63% 29.79 in 10.0 mi SW 13.8 mph 25.3 mph N/A   Clear
1:15 PM 46.4 °F 39.5 °F 35.6 °F 66% 29.78 in 10.0 mi WSW 17.3 mph 23.0 mph N/A   Clear
1:35 PM 48.2 °F - 35.6 °F 62% 29.78 in 10.0 mi WSW 18.4 mph 23.0 mph N/A   Clear
1:55 PM 48.7 °F - 36.0 °F 61% 29.78 in 10.0 mi WSW 12.7 mph 24.2 mph N/A   Clear
2:15 PM 49.1 °F - 36.0 °F 61% 29.77 in 10.0 mi WSW 17.3 mph 25.3 mph N/A   Clear
2:35 PM 49.3 °F - 36.5 °F 61% 29.77 in 10.0 mi WSW 23.0 mph 29.9 mph N/A   Clear
2:55 PM 49.3 °F - 36.5 °F 61% 29.76 in 10.0 mi WSW 23.0 mph - N/A   Clear
3:15 PM 49.3 °F - 36.7 °F 62% 29.77 in 10.0 mi WSW 17.3 mph 27.6 mph N/A   Clear
3:35 PM 49.5 °F - 36.5 °F 61% 29.78 in 10.0 mi WSW 21.9 mph 31.1 mph N/A   Clear
3:55 PM 49.3 °F - 36.3 °F 61% 29.78 in 10.0 mi WSW 18.4 mph 24.2 mph N/A   Clear
4:15 PM 48.6 °F - 36.0 °F 62% 29.80 in 10.0 mi West 16.1 mph 24.2 mph N/A   Clear
4:35 PM 47.8 °F - 35.6 °F 63% 29.80 in 10.0 mi West 19.6 mph 23.0 mph N/A   Clear
4:55 PM 46.8 °F - 35.1 °F 64% 29.81 in 10.0 mi WSW 15.0 mph 19.6 mph N/A   Clear
5:15 PM 46.0 °F 39.9 °F 34.9 °F 65% 29.82 in 10.0 mi WSW 13.8 mph 19.6 mph N/A   Clear
5:35 PM 45.0 °F 38.2 °F 34.3 °F 66% 29.83 in 10.0 mi WSW 15.0 mph - N/A   Clear
5:55 PM 45.0 °F 38.5 °F 33.8 °F 65% 29.83 in 10.0 mi WSW 13.8 mph - N/A   Clear
6:15 PM 44.6 °F 37.4 °F 33.6 °F 65% 29.84 in 10.0 mi West 16.1 mph - N/A   Clear
6:35 PM 44.6 °F 36.9 °F 33.1 °F 64% 29.85 in 10.0 mi West 18.4 mph 24.2 mph N/A   Clear
6:55 PM 44.6 °F 36.6 °F 32.9 °F 64% 29.85 in 10.0 mi West 19.6 mph 23.0 mph N/A   Clear
7:15 PM 43.9 °F 36.2 °F 32.4 °F 64% 29.85 in 10.0 mi West 17.3 mph - N/A   Clear
7:35 PM 43.3 °F 35.8 °F 32.2 °F 65% 29.86 in 10.0 mi West 16.1 mph 24.2 mph N/A   Clear
7:55 PM 42.8 °F 34.3 °F 32.4 °F 67% 29.87 in 10.0 mi West 19.6 mph 27.6 mph N/A   Clear
8:15 PM 42.8 °F 34.0 °F 32.0 °F 66% 29.88 in 10.0 mi West 20.7 mph 33.4 mph N/A   Clear
8:35 PM 41.0 °F 33.1 °F 32.0 °F 70% 29.89 in 10.0 mi West 15.0 mph 25.3 mph N/A   Scattered Clouds
8:55 PM 41.0 °F 30.9 °F 31.5 °F 69% 29.90 in 10.0 mi West 24.2 mph 33.4 mph N/A   Clear
9:15 PM 40.8 °F 30.7 °F 29.8 °F 65% 29.91 in 10.0 mi WNW 24.2 mph 33.4 mph N/A   Clear
9:35 PM 39.6 °F 29.7 °F 29.8 °F 68% 29.92 in 10.0 mi WNW 20.7 mph 31.1 mph N/A   Clear
9:55 PM 36.5 °F 23.5 °F 25.7 °F 65% 29.93 in 10.0 mi WNW 31.1 mph 36.8 mph N/A   Clear
10:15 PM 33.8 °F 20.1 °F 22.3 °F 63% 29.96 in 10.0 mi WNW 29.9 mph 47.2 mph N/A   Clear
10:35 PM 31.5 °F 16.9 °F 19.6 °F 62% 29.98 in 10.0 mi WNW 29.9 mph 41.4 mph N/A   Clear
10:55 PM 30.2 °F 15.7 °F 13.5 °F 50% 29.99 in 10.0 mi West 27.6 mph 42.6 mph N/A   Clear
11:15 PM 29.3 °F 16.2 °F 16.9 °F 60% 30.01 in 10.0 mi WNW 20.7 mph 29.9 mph N/A   Clear
11:35 PM 27.9 °F 13.1 °F 14.7 °F 58% 30.02 in 10.0 mi WNW 25.3 mph 36.8 mph N/A   Clear
11:55 PM 26.4 °F 9.5 °F 12.2 °F 55% 30.03 in 10.0 mi WNW 32.2 mph 41.4 mph N/A   Clear